Regional Weather Roundup
Issued by NWS

Home | Current Version | Previous Version | Text Only | Print | Product List | Glossary Off
Versions: 1 2 3 4 5 6 7 8 9 10 11 12 13 14 15 16 17 18 19 20 21 22 23 24 25 26 27 28 29 30 31 32 33 34 35 36 37 38 39 40 41 42 43 44 45 46 47 48 49 50

000
ASUS43 KDMX 011207
RWRIA

WEATHER ROUNDUP FOR IOWA
NATIONAL WEATHER SERVICE DES MOINES IA
700 AM CDT WED JUL 01 2015

NOTE: "FAIR" INDICATES FEW OR NO CLOUDS BELOW 12,000 FEET WITH NO
SIGNIFICANT WEATHER AND/OR OBSTRUCTIONS TO VISIBILITY.

* - THESE STATIONS ARE NOT NWS STATIONS...THUS NOT UNDER NWS
QUALITY CONTROL.  THEY ALSO DO NOT REPORT WEATHER SUCH
AS PRECIPITATION OR FOG.

IAZ001>003-012>014-020>022-031>034-043>046-011300-
   NORTHWEST IOWA

CITY           SKY/WX    TMP DP  RH WIND       PRES   REMARKS
CARROLL *      LGT RAIN  64  64 100 E6        29.92R
CHEROKEE *     CLOUDY    65  63  94 E5        29.94R
DENISON *      LGT RAIN  64  64 100 E14       29.85F
LE MARS *      PTSUNNY   66  64  94 VRB5      29.89F FOG
ORANGE CITY *  CLOUDY    63  63 100 SE3       29.90F FOG
SHELDON *      MOSUNNY   63  63 100 E12       29.88F FOG
SIOUX CITY     CLOUDY    68  64  87 E9        29.87R FOG
6HR MIN TEMP:  66; 6HR MAX TEMP:  69; 6HR PCP:  0.02;

SPENCER        PTSUNNY   63  59  87 E8        29.95R
6HR MIN TEMP:  62; 6HR MAX TEMP:  66;

STORM LAKE *   SUNNY     63  61  94 SE9       29.93R
$$

IAZ055>058-069>071-079>083-090>094-011300-
   SOUTHWEST IOWA

CITY           SKY/WX    TMP DP  RH WIND       PRES   REMARKS
ATLANTIC *     PTSUNNY   66  66 100 NE8       29.87R FOG
AUDUBON *      RAIN      66  64  94 E9        29.90R VSB 3/4
CLARINDA *     SUNNY     70  68  94 VRB5      29.85S
COUNCIL BLFS * SUNNY     66  66 100 E7        29.85R
CRESTON *      SUNNY     66  66 100 E9        29.87F FOG
HARLAN  *      CLOUDY    66  66 100 NE10G16   29.91R
LAMONI         MOSUNNY   69  67  93 E5        29.88R FOG
6HR MIN TEMP:  67; 6HR MAX TEMP:  69; 6HR PCP:  0.05;

RED OAK *      MOSUNNY   68  66  94 E3        29.84R
SHENANDOAH *   SUNNY     70  68  94 E6        29.82S
$$

IAZ047>049-059>061-072>074-084-011300-
   CENTRAL IOWA

CITY           SKY/WX    TMP DP  RH WIND       PRES   REMARKS
AMES           SUNNY     63  59  87 E3        29.92R
6HR MIN TEMP:  62; 6HR MAX TEMP:  68;

ANKENY *       SUNNY     64  63  94 E6        29.90S
CHARITON *     CLOUDY    68  68 100 CALM      29.90R FOG
DES MOINES     PTSUNNY   68  61  78 E7        29.89S
6HR MIN TEMP:  67; 6HR MAX TEMP:  73;

GRINNELL*      MOSUNNY   62  59  91 E7        29.93R
KNOXVILLE *    SUNNY     66  63  88 E6        29.90R
MARSHALLTOWN   SUNNY     61  58  90 E7        29.92R
6HR MIN TEMP:  61; 6HR MAX TEMP:  68;

PELLA *        SUNNY     65  63  94 E5        29.92R
PERRY *          N/A     64  63  94 E7        29.91R FOG
$$

IAZ004>006-015-016-023>025-035-036-011300-
   NORTH CENTRAL IOWA

CITY           SKY/WX    TMP DP  RH WIND       PRES   REMARKS
ALGONA *       SUNNY     61  55  82 SE7       29.95R
CLARION *      SUNNY     61  57  88 E12       29.94R
ESTHERVILLE    MOSUNNY   59  55  87 SE8       29.95R
6HR MIN TEMP:  57; 6HR MAX TEMP:  61;

FORT DODGE *   PTSUNNY   63  57  82 E6        29.96R
MASON CITY     SUNNY     57  55  93 E5        29.98R
6HR MIN TEMP:  55; 6HR MAX TEMP:  61;

FOREST CITY *  SUNNY     55  54  94 E3        29.96R
IOWA FALLS *     N/A     61  57  88 E6        29.95R
$$

IAZ007>011-017>019-026>030-037>042-050>054-066-011300-
   NORTHEAST IOWA

CITY           SKY/WX    TMP DP  RH WIND       PRES   REMARKS
CEDAR RAPIDS   SUNNY     61  57  87 NE9       29.93R
6HR MIN TEMP:  59; 6HR MAX TEMP:  66;

CHARLES CITY * SUNNY     57  57 100 E7        29.96S
CLINTON *      MOSUNNY   63  59  88 E10       29.97R
DECORAH *        N/A    N/A N/A N/A MISG        N/A
DUBUQUE        CLOUDY    57  54  89 NE8       29.95S
6HR MIN TEMP:  55; 6HR MAX TEMP:  61;

MONTICELLO *   SUNNY     57 N/A N/A CALM      29.95R
OELWEIN *      SUNNY     57  55  94 E5        29.97R
WATERLOO       SUNNY     57  55  93 CALM      29.95R
6HR MIN TEMP:  55; 6HR MAX TEMP:  62;

$$

IAZ064-065-067-068-078-011300-
   EAST CENTRAL IOWA

CITY           SKY/WX    TMP DP  RH WIND       PRES   REMARKS
DAVENPORT      FOG       61  60  97 E9        29.93S VSB 1/4
6HR MIN TEMP:  59; 6HR MAX TEMP:  64;

IOWA CITY      MOSUNNY   62  57  83 NE6       29.94R
6HR MIN TEMP:  62; 6HR MAX TEMP:  67;

MT. PLEASANT * MOSUNNY   67  63  86 NE3       29.91F FOG
MUSCATINE *    PTSUNNY   64  59  82 N3        29.93R
QUAD CITIES    CLOUDY    63  59  87 E8        29.92R FOG
6HR MIN TEMP:  63; 6HR MAX TEMP:  69;

$$

IAZ062-063-075>077-085>089-095>099-011300-
   SOUTHEAST IOWA

CITY           SKY/WX    TMP DP  RH WIND       PRES   REMARKS
BURLINGTON     MOSUNNY   68  65  90 NE5       29.90S FOG
6HR MIN TEMP:  67; 6HR MAX TEMP:  71;

FAIRFIELD *    PTSUNNY   64  61  88 NE8       29.91S
FORT MADISON * MOSUNNY   66  66 100 CALM      29.91S FOG
KEOKUK *       SUNNY     68  68 100 NW3       29.89S FOG
OSKALOOSA *      N/A     63  61  93 E6        29.91S
CENTERVILLE *  MOSUNNY   66  66 100 CALM      29.92R
OTTUMWA        MOSUNNY   64  62  93 E9        29.88F
6HR MIN TEMP:  63; 6HR MAX TEMP:  70;

WASHINGTON *   CLOUDY    64  63  94 NE7       29.93S
$$

ABBREVIATIONS USED IN REMARKS
   TC - TEMPERATURES IN CELSIUS
  WCI - WIND CHILL INDEX
   HX - HEAT INDEX
  VSB - VISIBILITY
$$



USA.gov is the U.S. government's official web portal to all federal, state and local government web resources and services.